Thetford Center, VT (05075)

9:11 PM EDT on September 01, 2015 (GMT -0400)
Stone House Farm | | Change Station
CLOSE
Current Station
Personal Weather Station
Location: Strafford, VT
Elevation: 1230 ft
Nearby Weather Stations

Elev 1230 ft 43.83 °N, 72.34 °W | Updated 33 seconds ago

Clear
Clear
65.0 °F
Feels Like 65.0 °F
N
1.0
Wind Variable Wind from NNE
Gusts 2.0 mph

Today
High -- | Low -- °F
--% Chance of Precip.
Yesterday
High -- | Low -- °F
Precip. -- in
6:12 AM 7:25 PM
Waning Gibbous, 85% visible
Pressure 30.02 in
Visibility 4.0 miles
Clouds Clear
Dew Point 35 °F
Humidity 33%
Rainfall 0.00 in
Snow Depth Not available.
UV 0 out of 12
Pollen 8.20 out of 12
Air Quality Not available.
Flu Activity Not available.
METAR KLEB 020053Z 00000KT 4SM BR CLR 18/16 A3004 RMK AO2 SLP165 T01830161
Pressure 30.02 in
Visibility 4.0 miles
Clouds Clear
Dew Point 35 °F
Humidity 33%
Rainfall 0.00 in
Snow Depth Not available.
UV 0 out of 12
Pollen 8.20 out of 12
Air Quality Not available.
Flu Activity Not available.
METAR KLEB 020053Z 00000KT 4SM BR CLR 18/16 A3004 RMK AO2 SLP165 T01830161

10-Day Weather Forecast

×

Almanac

Astronomy

Sep. 01, 2015 Rise Set
Actual Time
Civil Twilight
Nautical Twilight
Astronomical Twilight
Moon
Length of Visible Light
Length of Day
Tomorrow will be .
, % of the Moon is Illuminated

Today's Extremes

State Highs State Lows

Community

WunderPhotos

Upload Photos

1,851,667 photos uploaded!

WunderBlogs® & News

Nearby

Air Quality

  Air Quality AQ Index Pollutant
Not available.

Snow Depth

Station Depth Elevation

Earthquake Activity

City Distance Mag. Time & Date
Minimum magnitude displayed is 2.5.

Coastal Water Temperatures

Place Temperature

Stations

Nearby Weather Stations

Station Location Temp. Windchill Dew Point Humidity Wind Precip. Elev Updated Type